Time,TemperatureF,DewpointF,PressureIn,WindDirection,WindDirectionDegrees,WindSpeedMPH,WindSpeedGustMPH,Humidity,HourlyPrecipIn,Conditions,Clouds,dailyrainin,SoftwareType,DateUTC
2013-03-19 00:03:00,33.9,24.9,30.10,North,357,0.0,0.0,69,0.00,,,-99.99,Meteorologica,2013-03-19 05:03:00,
2013-03-19 00:08:00,34.0,24.8,30.11,North,357,0.0,0.0,68,0.00,,,-99.99,Meteorologica,2013-03-19 05:08:00,
2013-03-19 00:14:00,34.1,24.6,30.10,North,357,0.0,0.0,67,0.00,,,-99.99,Meteorologica,2013-03-19 05:14:00,
2013-03-19 00:19:00,34.2,24.7,30.11,North,357,0.0,0.0,67,0.00,,,-99.99,Meteorologica,2013-03-19 05:19:00,
2013-03-19 00:24:00,34.3,24.8,30.11,North,357,0.0,0.0,67,0.00,,,-99.99,Meteorologica,2013-03-19 05:24:00,
2013-03-19 00:29:00,34.2,24.2,30.11,North,357,0.0,0.0,66,0.00,,,-99.99,Meteorologica,2013-03-19 05:29:00,
2013-03-19 00:35:00,34.3,24.2,30.11,North,357,0.0,0.0,66,0.00,,,-99.99,Meteorologica,2013-03-19 05:35:00,
2013-03-19 00:40:00,34.4,24.2,30.10,North,357,0.0,0.0,65,0.00,,,-99.99,Meteorologica,2013-03-19 05:40:00,
2013-03-19 00:45:00,34.3,23.9,30.10,North,357,0.0,0.0,65,0.00,,,-99.99,Meteorologica,2013-03-19 05:45:00,
2013-03-19 00:50:00,34.4,24.0,30.10,North,357,0.0,0.0,65,0.00,,,-99.99,Meteorologica,2013-03-19 05:50:00,
2013-03-19 00:55:00,34.4,24.2,30.10,North,357,0.0,0.0,65,0.00,,,-99.99,Meteorologica,2013-03-19 05:55:00,
2013-03-19 01:00:00,34.4,24.0,30.09,North,357,0.0,0.0,65,0.00,,,-99.99,Meteorologica,2013-03-19 06:00:00,
2013-03-19 01:05:00,34.4,23.7,30.09,North,357,0.0,0.0,64,0.00,,,-99.99,Meteorologica,2013-03-19 06:05:00,
2013-03-19 01:10:00,34.4,23.8,30.10,North,357,0.0,0.0,64,0.00,,,-99.99,Meteorologica,2013-03-19 06:10:00,
2013-03-19 01:15:00,34.5,23.8,30.09,North,357,0.0,0.0,64,0.00,,,-99.99,Meteorologica,2013-03-19 06:15:00,
2013-03-19 01:20:00,34.6,23.8,30.09,North,357,0.0,0.0,64,0.00,,,-99.99,Meteorologica,2013-03-19 06:20:00,
2013-03-19 01:25:00,34.6,24.0,30.09,North,357,0.0,0.0,64,0.00,,,-99.99,Meteorologica,2013-03-19 06:25:00,
2013-03-19 01:30:00,34.6,23.7,30.09,North,357,0.0,0.0,63,0.00,,,-99.99,Meteorologica,2013-03-19 06:30:00,
2013-03-19 01:35:00,34.7,23.6,30.10,North,357,0.0,0.0,63,0.00,,,-99.99,Meteorologica,2013-03-19 06:35:00,
2013-03-19 01:40:00,34.7,23.9,30.10,North,357,0.0,0.0,64,0.00,,,-99.99,Meteorologica,2013-03-19 06:40:00,
2013-03-19 01:45:00,34.8,24.0,30.10,North,357,0.0,0.0,64,0.00,,,-99.99,Meteorologica,2013-03-19 06:45:00,
2013-03-19 01:50:00,34.8,24.2,30.09,North,357,0.0,0.0,64,0.00,,,-99.99,Meteorologica,2013-03-19 06:50:00,
2013-03-19 01:55:00,34.8,24.4,30.10,North,357,0.0,0.0,65,0.00,,,-99.99,Meteorologica,2013-03-19 06:55:00,
2013-03-19 02:00:00,34.8,24.6,30.11,North,357,0.0,0.0,65,0.00,,,-99.99,Meteorologica,2013-03-19 07:00:00,
2013-03-19 02:05:00,34.8,25.5,30.11,North,357,0.0,0.0,68,0.00,,,-99.99,Meteorologica,2013-03-19 07:05:00,
2013-03-19 02:10:00,34.7,25.2,30.11,North,357,0.0,0.0,67,0.00,,,-99.99,Meteorologica,2013-03-19 07:10:00,
2013-03-19 02:15:00,34.6,25.1,30.11,North,357,0.0,0.0,67,0.00,,,-99.99,Meteorologica,2013-03-19 07:15:00,
2013-03-19 02:20:00,34.7,24.9,30.11,North,357,0.0,0.0,66,0.00,,,-99.99,Meteorologica,2013-03-19 07:20:00,
2013-03-19 02:25:00,34.7,24.8,30.11,North,357,0.0,0.0,66,0.00,,,-99.99,Meteorologica,2013-03-19 07:25:00,
2013-03-19 02:30:00,34.8,24.8,30.12,North,357,0.0,0.0,66,0.00,,,-99.99,Meteorologica,2013-03-19 07:30:00,
2013-03-19 02:35:00,34.7,24.8,30.11,North,357,0.0,0.0,66,0.00,,,-99.99,Meteorologica,2013-03-19 07:35:00,
2013-03-19 02:40:00,34.7,24.6,30.12,North,357,0.0,0.0,66,0.00,,,-99.99,Meteorologica,2013-03-19 07:40:00,
2013-03-19 02:45:00,34.7,24.5,30.11,NW,314,0.0,0.0,65,0.00,,,-99.99,Meteorologica,2013-03-19 07:45:00,
2013-03-19 02:50:00,34.7,24.4,30.11,NW,314,0.0,0.0,65,0.00,,,-99.99,Meteorologica,2013-03-19 07:50:00,
2013-03-19 02:55:00,34.9,24.6,30.11,NW,314,0.0,0.0,65,0.00,,,-99.99,Meteorologica,2013-03-19 07:55:00,
2013-03-19 03:00:00,34.9,24.2,30.11,NW,314,0.0,0.0,64,0.00,,,-99.99,Meteorologica,2013-03-19 08:00:00,
2013-03-19 03:05:00,35.0,24.4,30.11,NW,314,0.0,0.0,64,0.00,,,-99.99,Meteorologica,2013-03-19 08:05:00,
2013-03-19 03:10:00,35.0,24.0,30.12,NW,314,0.0,0.0,63,0.00,,,-99.99,Meteorologica,2013-03-19 08:10:00,
2013-03-19 03:15:00,35.1,24.0,30.11,NW,314,0.0,0.0,63,0.00,,,-99.99,Meteorologica,2013-03-19 08:15:00,
2013-03-19 03:20:00,35.1,23.9,30.12,NW,314,0.0,0.0,63,0.00,,,-99.99,Meteorologica,2013-03-19 08:20:00,
2013-03-19 03:25:00,35.1,24.1,30.11,NW,314,0.0,0.0,63,0.00,,,-99.99,Meteorologica,2013-03-19 08:25:00,
2013-03-19 03:30:00,35.1,24.4,30.11,NW,314,0.0,0.0,64,0.00,,,-99.99,Meteorologica,2013-03-19 08:30:00,
2013-03-19 03:35:00,35.2,24.6,30.11,NW,314,0.0,0.0,64,0.00,,,-99.99,Meteorologica,2013-03-19 08:35:00,
2013-03-19 03:40:00,35.2,24.8,30.11,NW,314,0.0,0.0,65,0.00,,,-99.99,Meteorologica,2013-03-19 08:40:00,
2013-03-19 03:45:00,35.2,24.9,30.11,NW,314,0.0,0.0,65,0.00,,,-99.99,Meteorologica,2013-03-19 08:45:00,
2013-03-19 03:50:00,35.2,24.9,30.11,NW,314,0.0,0.0,65,0.00,,,-99.99,Meteorologica,2013-03-19 08:50:00,
2013-03-19 03:55:00,35.1,24.8,30.11,NW,314,0.0,0.0,65,0.00,,,-99.99,Meteorologica,2013-03-19 08:55:00,
2013-03-19 04:00:00,35.1,24.9,30.11,NW,314,0.0,0.0,65,0.00,,,-99.99,Meteorologica,2013-03-19 09:00:00,
2013-03-19 04:05:00,35.1,24.8,30.11,NW,314,0.0,0.0,65,0.00,,,-99.99,Meteorologica,2013-03-19 09:05:00,
2013-03-19 04:10:00,35.1,25.1,30.11,NW,314,0.0,0.0,66,0.00,,,-99.99,Meteorologica,2013-03-19 09:10:00,
2013-03-19 04:15:00,35.0,24.9,30.11,NW,314,0.0,0.0,66,0.00,,,-99.99,Meteorologica,2013-03-19 09:15:00,
2013-03-19 04:20:00,35.1,25.0,30.11,NW,314,0.0,0.0,66,0.00,,,-99.99,Meteorologica,2013-03-19 09:20:00,
2013-03-19 04:25:00,35.1,25.1,30.11,NW,314,0.0,0.0,66,0.00,,,-99.99,Meteorologica,2013-03-19 09:25:00,
2013-03-19 04:30:00,35.1,25.2,30.11,NW,314,0.0,0.0,66,0.00,,,-99.99,Meteorologica,2013-03-19 09:30:00,
2013-03-19 04:35:00,35.1,25.1,30.11,NW,314,0.0,0.0,66,0.00,,,-99.99,Meteorologica,2013-03-19 09:35:00,
2013-03-19 04:40:00,35.1,25.0,30.11,NW,314,0.0,0.0,66,0.00,,,-99.99,Meteorologica,2013-03-19 09:40:00,
2013-03-19 04:45:00,35.1,24.8,30.12,NW,314,0.0,0.0,65,0.00,,,-99.99,Meteorologica,2013-03-19 09:45:00,
2013-03-19 04:50:00,35.1,25.3,30.13,NW,314,0.0,0.0,66,0.00,,,-99.99,Meteorologica,2013-03-19 09:50:00,
2013-03-19 04:55:00,35.1,25.3,30.11,NW,314,0.0,0.0,66,0.00,,,-99.99,Meteorologica,2013-03-19 09:55:00,
2013-03-19 05:00:00,35.1,25.3,30.12,NW,314,0.0,0.0,66,0.00,,,-99.99,Meteorologica,2013-03-19 10:00:00,
2013-03-19 05:05:00,35.2,25.4,30.11,NW,314,0.0,0.0,67,0.00,,,-99.99,Meteorologica,2013-03-19 10:05:00,
2013-03-19 05:10:00,35.1,25.1,30.11,NW,314,0.0,0.0,66,0.00,,,-99.99,Meteorologica,2013-03-19 10:10:00,
2013-03-19 05:15:00,35.1,25.2,30.11,NW,314,0.0,0.0,66,0.00,,,-99.99,Meteorologica,2013-03-19 10:15:00,
2013-03-19 05:20:00,35.1,25.2,30.11,NW,314,0.0,0.0,66,0.00,,,-99.99,Meteorologica,2013-03-19 10:20:00,
2013-03-19 05:25:00,35.1,25.1,30.11,NW,314,0.0,0.0,66,0.00,,,-99.99,Meteorologica,2013-03-19 10:25:00,
2013-03-19 05:30:00,35.2,25.7,30.11,NW,314,0.0,0.0,67,0.00,,,-99.99,Meteorologica,2013-03-19 10:30:00,
2013-03-19 05:35:00,35.1,25.9,30.11,NW,314,0.0,0.0,68,0.00,,,-99.99,Meteorologica,2013-03-19 10:35:00,
2013-03-19 05:40:00,35.1,26.1,30.11,NW,314,0.0,0.0,69,0.00,,,-99.99,Meteorologica,2013-03-19 10:40:00,
2013-03-19 05:45:00,35.0,26.4,30.10,SE,143,3.4,5.2,70,0.00,,,-99.99,Meteorologica,2013-03-19 10:45:00,
2013-03-19 05:50:00,34.9,26.3,30.10,SE,131,0.0,0.0,70,0.00,,,-99.99,Meteorologica,2013-03-19 10:50:00,
2013-03-19 05:55:00,34.8,26.3,30.10,SE,131,0.0,0.0,70,0.00,,,-99.99,Meteorologica,2013-03-19 10:55:00,
2013-03-19 06:00:00,34.8,26.2,30.11,SE,131,0.0,0.0,70,0.00,,,-99.99,Meteorologica,2013-03-19 11:00:00,
2013-03-19 06:05:00,34.7,26.2,30.11,SE,131,0.0,0.0,70,0.00,,,-99.99,Meteorologica,2013-03-19 11:05:00,
2013-03-19 06:10:00,34.8,26.2,30.11,SE,131,0.0,0.0,70,0.00,,,-99.99,Meteorologica,2013-03-19 11:10:00,
2013-03-19 06:15:00,34.8,26.2,30.11,SE,131,0.0,0.0,70,0.00,,,-99.99,Meteorologica,2013-03-19 11:15:00,
2013-03-19 06:20:00,34.8,26.2,30.11,SE,131,0.0,0.0,70,0.00,,,-99.99,Meteorologica,2013-03-19 11:20:00,
2013-03-19 06:25:00,34.8,26.2,30.11,SE,131,0.0,0.0,70,0.00,,,-99.99,Meteorologica,2013-03-19 11:25:00,
2013-03-19 06:30:00,34.8,26.2,30.14,SE,131,0.0,0.0,70,0.00,,,-99.99,Meteorologica,2013-03-19 11:30:00,
2013-03-19 06:35:00,34.8,25.7,30.13,SE,131,0.0,0.0,68,0.00,,,-99.99,Meteorologica,2013-03-19 11:35:00,
2013-03-19 06:40:00,34.9,25.8,30.14,SE,131,0.0,0.0,69,0.00,,,-99.99,Meteorologica,2013-03-19 11:40:00,
2013-03-19 06:45:00,34.9,25.9,30.14,SE,131,0.0,0.0,69,0.00,,,-99.99,Meteorologica,2013-03-19 11:45:00,
2013-03-19 06:50:00,34.9,25.9,30.14,SE,131,0.0,0.0,69,0.00,,,-99.99,Meteorologica,2013-03-19 11:50:00,
2013-03-19 06:55:00,34.9,25.9,30.14,SE,131,0.0,0.0,69,0.00,,,-99.99,Meteorologica,2013-03-19 11:55:00,
2013-03-19 07:00:00,34.9,26.0,30.14,SE,131,0.0,0.0,69,0.00,,,-99.99,Meteorologica,2013-03-19 12:00:00,
2013-03-19 07:05:00,35.0,26.2,30.14,SE,131,0.0,0.0,69,0.00,,,-99.99,Meteorologica,2013-03-19 12:05:00,
2013-03-19 07:10:00,35.0,25.9,30.15,SE,131,0.0,0.0,68,0.00,,,-99.99,Meteorologica,2013-03-19 12:10:00,
2013-03-19 07:15:00,35.0,25.9,30.14,SE,131,0.0,0.0,68,0.00,,,-99.99,Meteorologica,2013-03-19 12:15:00,
2013-03-19 07:20:00,35.0,25.9,30.15,SE,131,0.0,0.0,68,0.00,,,-99.99,Meteorologica,2013-03-19 12:20:00,
2013-03-19 07:25:00,35.0,26.0,30.14,SE,131,0.0,0.0,69,0.00,,,-99.99,Meteorologica,2013-03-19 12:25:00,
2013-03-19 07:30:00,35.0,26.1,30.14,SE,131,0.0,0.0,69,0.00,,,-99.99,Meteorologica,2013-03-19 12:30:00,
2013-03-19 07:35:00,35.0,25.9,30.15,SE,131,0.0,0.0,69,0.00,,,-99.99,Meteorologica,2013-03-19 12:35:00,
2013-03-19 07:40:00,35.0,26.0,30.14,SE,131,0.0,0.0,69,0.00,,,-99.99,Meteorologica,2013-03-19 12:40:00,
2013-03-19 07:45:00,35.0,25.8,30.15,SE,131,0.0,0.0,68,0.00,,,-99.99,Meteorologica,2013-03-19 12:45:00,
2013-03-19 07:50:00,35.0,25.7,30.15,SE,131,0.0,0.0,68,0.00,,,-99.99,Meteorologica,2013-03-19 12:50:00,
2013-03-19 07:55:00,35.1,25.9,30.14,SE,131,0.0,0.0,68,0.00,,,-99.99,Meteorologica,2013-03-19 12:55:00,
2013-03-19 08:00:00,35.0,25.6,30.15,SE,131,0.0,0.0,68,0.00,,,-99.99,Meteorologica,2013-03-19 13:00:00,
2013-03-19 08:05:00,35.1,25.6,30.15,SE,131,0.0,0.0,67,0.00,,,-99.99,Meteorologica,2013-03-19 13:05:00,
2013-03-19 08:10:00,35.1,25.5,30.16,SE,131,0.0,0.0,67,0.00,,,-99.99,Meteorologica,2013-03-19 13:10:00,
2013-03-19 08:15:00,35.2,25.4,30.16,SE,131,0.0,0.0,67,0.00,,,-99.99,Meteorologica,2013-03-19 13:15:00,
2013-03-19 08:20:00,35.3,25.4,30.17,SE,131,0.0,0.0,66,0.00,,,-99.99,Meteorologica,2013-03-19 13:20:00,
2013-03-19 08:25:00,35.3,25.4,30.16,SE,131,0.0,0.0,66,0.00,,,-99.99,Meteorologica,2013-03-19 13:25:00,
2013-03-19 08:30:00,35.4,25.2,30.16,SE,131,0.0,0.0,66,0.00,,,-99.99,Meteorologica,2013-03-19 13:30:00,
2013-03-19 08:35:00,35.3,25.2,30.16,SE,131,0.0,0.0,66,0.00,,,-99.99,Meteorologica,2013-03-19 13:35:00,
2013-03-19 08:40:00,35.5,25.6,30.16,SE,131,0.0,0.0,66,0.00,,,-99.99,Meteorologica,2013-03-19 13:40:00,
2013-03-19 08:45:00,35.6,25.2,30.17,SE,131,0.0,0.0,65,0.00,,,-99.99,Meteorologica,2013-03-19 13:45:00,
2013-03-19 08:50:00,35.8,25.5,30.17,SE,131,0.0,0.0,65,0.00,,,-99.99,Meteorologica,2013-03-19 13:50:00,
2013-03-19 08:55:00,35.9,25.4,30.17,SE,131,0.0,0.0,65,0.00,,,-99.99,Meteorologica,2013-03-19 13:55:00,
2013-03-19 09:00:00,36.0,25.5,30.17,SE,131,0.0,0.0,65,0.00,,,-99.99,Meteorologica,2013-03-19 14:00:00,
2013-03-19 09:05:00,36.1,24.9,30.18,SE,131,0.0,0.0,63,0.00,,,-99.99,Meteorologica,2013-03-19 14:05:00,
2013-03-19 09:10:00,36.4,25.3,30.18,SE,131,0.0,0.0,63,0.00,,,-99.99,Meteorologica,2013-03-19 14:10:00,
2013-03-19 09:15:00,36.7,25.2,30.18,SE,131,0.0,0.0,62,0.00,,,-99.99,Meteorologica,2013-03-19 14:15:00,
2013-03-19 09:20:00,36.9,25.4,30.18,SE,131,0.0,0.0,62,0.00,,,-99.99,Meteorologica,2013-03-19 14:20:00,
2013-03-19 09:25:00,37.1,25.3,30.18,SE,131,0.0,0.0,61,0.00,,,-99.99,Meteorologica,2013-03-19 14:25:00,
2013-03-19 09:31:00,37.3,25.1,30.19,SE,131,0.0,0.0,60,0.00,,,-99.99,Meteorologica,2013-03-19 14:31:00,
2013-03-19 09:36:00,37.4,24.8,30.19,SE,131,0.0,0.0,60,0.00,,,-99.99,Meteorologica,2013-03-19 14:36:00,
2013-03-19 09:41:00,37.7,24.4,30.19,SE,131,0.0,0.0,58,0.00,,,-99.99,Meteorologica,2013-03-19 14:41:00,
2013-03-19 09:46:00,38.0,23.1,30.19,SE,131,0.0,0.0,54,0.00,,,-99.99,Meteorologica,2013-03-19 14:46:00,
2013-03-19 09:51:00,38.3,23.5,30.19,SE,131,0.0,0.0,54,0.00,,,-99.99,Meteorologica,2013-03-19 14:51:00,
2013-03-19 09:56:00,38.6,23.7,30.19,SE,131,0.0,0.0,54,0.00,,,-99.99,Meteorologica,2013-03-19 14:56:00,
2013-03-19 10:01:00,39.0,22.2,30.19,SE,131,0.0,0.0,50,0.00,,,-99.99,Meteorologica,2013-03-19 15:01:00,
2013-03-19 10:06:00,39.4,22.0,30.19,SE,131,0.0,0.0,49,0.00,,,-99.99,Meteorologica,2013-03-19 15:06:00,
2013-03-19 10:11:00,39.7,20.0,30.20,SE,131,0.0,0.0,45,0.00,,,-99.99,Meteorologica,2013-03-19 15:11:00,
2013-03-19 10:16:00,39.9,19.8,30.20,SE,131,0.0,0.0,44,0.00,,,-99.99,Meteorologica,2013-03-19 15:16:00,
2013-03-19 10:21:00,40.2,20.4,30.20,SE,131,0.0,0.0,44,0.00,,,-99.99,Meteorologica,2013-03-19 15:21:00,
2013-03-19 10:26:00,40.5,18.5,30.20,SE,131,0.0,0.0,41,0.00,,,-99.99,Meteorologica,2013-03-19 15:26:00,
2013-03-19 10:31:00,40.9,17.7,30.20,SW,224,1.4,4.8,39,0.00,,,-99.99,Meteorologica,2013-03-19 15:31:00,
2013-03-19 10:36:00,41.2,18.9,30.20,SW,217,0.0,0.0,40,0.00,,,-99.99,Meteorologica,2013-03-19 15:36:00,
2013-03-19 10:41:00,41.2,20.7,30.21,SSE,162,2.5,5.1,43,0.00,,,-99.99,Meteorologica,2013-03-19 15:41:00,
2013-03-19 10:46:00,41.3,23.2,30.21,South,182,1.2,4.8,48,0.00,,,-99.99,Meteorologica,2013-03-19 15:46:00,
2013-03-19 10:51:00,41.1,25.1,30.21,SSE,158,0.0,8.1,52,0.00,,,-99.99,Meteorologica,2013-03-19 15:51:00,
2013-03-19 10:56:00,40.9,26.6,30.22,South,169,0.0,0.0,56,0.00,,,-99.99,Meteorologica,2013-03-19 15:56:00,
2013-03-19 11:01:00,40.7,26.7,30.21,SW,235,0.0,0.0,57,0.00,,,-99.99,Meteorologica,2013-03-19 16:01:00,
2013-03-19 11:06:00,40.6,28.2,30.21,WNW,282,0.0,0.0,60,0.00,,,-99.99,Meteorologica,2013-03-19 16:06:00,
2013-03-19 11:11:00,40.5,29.5,30.22,West,266,0.0,0.0,64,0.00,,,-99.99,Meteorologica,2013-03-19 16:11:00,
2013-03-19 11:16:00,40.1,30.3,30.22,West,266,0.0,0.0,67,0.00,,,-99.99,Meteorologica,2013-03-19 16:16:00,
2013-03-19 11:21:00,39.8,30.6,30.22,West,266,0.0,0.0,69,0.00,,,-99.99,Meteorologica,2013-03-19 16:21:00,
2013-03-19 11:26:00,39.1,31.7,30.22,SSW,200,4.6,7.9,74,0.00,,,-99.99,Meteorologica,2013-03-19 16:26:00,
2013-03-19 11:31:00,39.1,32.1,30.22,WSW,242,0.0,0.0,75,0.00,,,-99.99,Meteorologica,2013-03-19 16:31:00,
2013-03-19 11:36:00,38.9,32.1,30.22,WSW,242,0.0,0.0,76,0.00,,,-99.99,Meteorologica,2013-03-19 16:36:00,
2013-03-19 11:41:00,38.8,32.3,30.22,WSW,242,0.0,0.0,77,0.00,,,-99.99,Meteorologica,2013-03-19 16:41:00,
2013-03-19 11:46:00,38.7,32.9,30.23,WSW,239,0.0,3.3,79,0.00,,,-99.99,Meteorologica,2013-03-19 16:46:00,
2013-03-19 11:51:00,38.4,33.4,30.24,SW,232,0.0,4.1,82,0.00,,,-99.99,Meteorologica,2013-03-19 16:51:00,
2013-03-19 11:56:00,38.2,34.0,30.24,WSW,238,0.0,0.0,84,0.00,,,-99.99,Meteorologica,2013-03-19 16:56:00,
2013-03-19 12:01:00,38.0,34.4,30.24,WSW,238,0.0,0.0,86,0.00,,,-99.99,Meteorologica,2013-03-19 17:01:00,
2013-03-19 12:06:00,37.6,34.8,30.24,WNW,292,1.3,6.0,89,0.00,,,-99.99,Meteorologica,2013-03-19 17:06:00,
2013-03-19 12:12:00,37.5,34.9,30.24,WSW,242,0.0,4.5,90,0.00,,,-99.99,Meteorologica,2013-03-19 17:12:00,
2013-03-19 12:17:00,37.4,34.9,30.25,SSW,194,1.9,5.5,90,0.00,,,-99.99,Meteorologica,2013-03-19 17:17:00,
2013-03-19 12:22:00,37.3,34.9,30.25,SSW,194,0.0,0.0,91,0.00,,,-99.99,Meteorologica,2013-03-19 17:22:00,
2013-03-19 12:27:00,37.0,34.8,30.24,SW,233,1.8,4.4,91,0.00,,,-99.99,Meteorologica,2013-03-19 17:27:00,
2013-03-19 12:32:00,36.4,34.4,30.25,SW,215,4.3,6.6,92,0.00,,,-99.99,Meteorologica,2013-03-19 17:32:00,
2013-03-19 12:37:00,36.0,34.1,30.25,SW,217,3.7,5.5,93,0.00,,,-99.99,Meteorologica,2013-03-19 17:37:00,
2013-03-19 12:42:00,35.7,33.9,30.25,SSW,200,4.6,6.5,93,0.00,,,-99.99,Meteorologica,2013-03-19 17:42:00,
2013-03-19 12:47:00,35.4,33.7,30.25,South,191,1.8,5.5,93,0.00,,,-99.99,Meteorologica,2013-03-19 17:47:00,
2013-03-19 12:52:00,35.4,33.7,30.25,SSW,210,0.0,5.7,93,0.00,,,-99.99,Meteorologica,2013-03-19 17:52:00,
2013-03-19 12:57:00,35.5,33.9,30.25,SSW,199,0.5,5.3,93,0.00,,,-99.99,Meteorologica,2013-03-19 17:57:00,
2013-03-19 13:02:00,35.8,34.2,30.25,South,173,0.9,3.3,93,0.00,,,-99.99,Meteorologica,2013-03-19 18:02:00,
2013-03-19 13:08:00,36.1,34.5,30.25,SSW,193,1.1,6.9,94,0.00,,,-99.99,Meteorologica,2013-03-19 18:08:00,
2013-03-19 13:13:00,36.3,34.7,30.24,South,169,3.0,7.5,94,0.00,,,-99.99,Meteorologica,2013-03-19 18:13:00,
2013-03-19 13:18:00,36.3,34.7,30.25,SSW,206,4.0,6.4,94,0.00,,,-99.99,Meteorologica,2013-03-19 18:18:00,
2013-03-19 13:24:00,36.6,35.0,30.24,SW,221,3.0,4.8,94,0.00,,,-99.99,Meteorologica,2013-03-19 18:24:00,
2013-03-19 13:29:00,36.9,35.3,30.24,SSE,155,1.9,3.3,94,0.00,,,-99.99,Meteorologica,2013-03-19 18:29:00,
2013-03-19 13:34:00,37.0,35.4,30.24,South,187,1.9,4.2,94,0.00,,,-99.99,Meteorologica,2013-03-19 18:34:00,
2013-03-19 13:39:00,37.3,35.7,30.25,ESE,117,0.7,2.8,94,0.00,,,-99.99,Meteorologica,2013-03-19 18:39:00,
2013-03-19 13:44:00,37.6,36.0,30.24,WNW,287,0.0,0.0,94,0.00,,,-99.99,Meteorologica,2013-03-19 18:44:00,
2013-03-19 13:50:00,37.9,36.4,30.24,WNW,300,5.2,8.2,94,0.00,,,-99.99,Meteorologica,2013-03-19 18:50:00,
2013-03-19 13:55:00,38.3,36.7,30.24,SW,221,0.0,5.3,94,0.00,,,-99.99,Meteorologica,2013-03-19 18:55:00,
2013-03-19 14:00:00,38.5,36.9,30.24,West,261,0.4,4.8,93,0.00,,,-99.99,Meteorologica,2013-03-19 19:00:00,
2013-03-19 14:05:00,38.8,37.1,30.24,West,272,3.3,5.8,93,0.00,,,-99.99,Meteorologica,2013-03-19 19:05:00,
2013-03-19 14:10:00,39.0,37.1,30.24,WNW,293,5.0,7.7,93,0.00,,,-99.99,Meteorologica,2013-03-19 19:10:00,
2013-03-19 14:15:00,39.2,37.4,30.24,WNW,300,4.2,5.0,93,0.00,,,-99.99,Meteorologica,2013-03-19 19:15:00,
2013-03-19 14:20:00,39.6,37.7,30.24,NW,309,3.2,6.8,92,0.00,,,-99.99,Meteorologica,2013-03-19 19:20:00,
2013-03-19 14:25:00,39.7,37.6,30.24,WNW,290,5.3,6.8,92,0.00,,,-99.99,Meteorologica,2013-03-19 19:25:00,
2013-03-19 14:31:00,40.0,37.8,30.24,NW,312,6.6,8.0,92,0.00,,,-99.99,Meteorologica,2013-03-19 19:31:00,
2013-03-19 14:36:00,40.5,38.4,30.23,NW,311,5.9,8.4,92,0.00,,,-99.99,Meteorologica,2013-03-19 19:36:00,
2013-03-19 14:41:00,40.9,38.7,30.23,West,268,5.2,9.1,91,0.00,,,-99.99,Meteorologica,2013-03-19 19:41:00,
2013-03-19 14:46:00,41.1,38.7,30.23,West,265,5.0,7.4,91,0.00,,,-99.99,Meteorologica,2013-03-19 19:46:00,
2013-03-19 14:51:00,41.4,38.9,30.22,WNW,297,2.7,5.0,91,0.00,,,-99.99,Meteorologica,2013-03-19 19:51:00,
2013-03-19 14:56:00,42.0,39.5,30.22,WNW,295,4.7,6.3,91,0.00,,,-99.99,Meteorologica,2013-03-19 19:56:00,
2013-03-19 15:01:00,42.2,39.2,30.23,WNW,300,6.8,9.7,89,0.00,,,-99.99,Meteorologica,2013-03-19 20:01:00,
2013-03-19 15:06:00,42.4,39.4,30.22,WNW,286,5.4,7.3,89,0.00,,,-99.99,Meteorologica,2013-03-19 20:06:00,
2013-03-19 15:11:00,42.3,39.1,30.22,WNW,291,4.9,7.3,88,0.00,,,-99.99,Meteorologica,2013-03-19 20:11:00,
2013-03-19 15:16:00,42.5,39.6,30.22,NW,325,5.7,7.4,89,0.00,,,-99.99,Meteorologica,2013-03-19 20:16:00,
2013-03-19 15:21:00,43.1,40.4,30.22,NW,306,3.3,7.1,90,0.00,,,-99.99,Meteorologica,2013-03-19 20:21:00,
2013-03-19 15:26:00,43.6,39.8,30.21,West,271,5.0,8.7,86,0.00,,,-99.99,Meteorologica,2013-03-19 20:26:00,
2013-03-19 15:31:00,44.3,40.2,30.22,West,273,7.1,9.1,85,0.00,,,-99.99,Meteorologica,2013-03-19 20:31:00,
2013-03-19 15:36:00,44.9,40.4,30.21,WSW,254,5.9,8.7,84,0.00,,,-99.99,Meteorologica,2013-03-19 20:36:00,
2013-03-19 15:41:00,45.4,41.0,30.20,WNW,295,6.4,9.1,84,0.00,,,-99.99,Meteorologica,2013-03-19 20:41:00,
2013-03-19 15:46:00,45.7,40.8,30.20,West,276,2.5,7.6,82,0.00,,,-99.99,Meteorologica,2013-03-19 20:46:00,
2013-03-19 15:51:00,46.0,39.7,30.20,West,262,6.4,10.0,78,0.00,,,-99.99,Meteorologica,2013-03-19 20:51:00,
2013-03-19 15:56:00,46.0,40.8,30.20,WNW,300,4.5,7.1,81,0.00,,,-99.99,Meteorologica,2013-03-19 20:56:00,
2013-03-19 16:01:00,46.0,40.5,30.19,SW,224,0.0,0.0,80,0.00,,,-99.99,Meteorologica,2013-03-19 21:01:00,
2013-03-19 16:06:00,46.3,41.3,30.19,NW,310,5.4,7.8,82,0.00,,,-99.99,Meteorologica,2013-03-19 21:06:00,
2013-03-19 16:11:00,46.9,40.3,30.19,SW,224,3.3,6.8,77,0.00,,,-99.99,Meteorologica,2013-03-19 21:11:00,
2013-03-19 16:16:00,46.9,40.6,30.20,NW,316,4.7,6.1,78,0.00,,,-99.99,Meteorologica,2013-03-19 21:16:00,
2013-03-19 16:21:00,47.0,40.4,30.19,WSW,257,5.1,7.3,77,0.00,,,-99.99,Meteorologica,2013-03-19 21:21:00,
2013-03-19 16:26:00,47.3,40.4,30.19,WSW,247,4.2,7.9,76,0.00,,,-99.99,Meteorologica,2013-03-19 21:26:00,
2013-03-19 16:31:00,47.8,40.3,30.19,SSW,200,1.5,5.9,74,0.00,,,-99.99,Meteorologica,2013-03-19 21:31:00,
2013-03-19 16:36:00,47.8,39.5,30.19,WNW,286,2.7,7.9,73,0.00,,,-99.99,Meteorologica,2013-03-19 21:36:00,
2013-03-19 16:41:00,47.5,40.2,30.19,WNW,286,0.0,0.0,75,0.00,,,-99.99,Meteorologica,2013-03-19 21:41:00,
2013-03-19 16:46:00,47.1,40.4,30.20,WNW,286,0.0,0.0,77,0.00,,,-99.99,Meteorologica,2013-03-19 21:46:00,
2013-03-19 16:51:00,46.2,40.5,30.21,West,261,6.2,9.0,80,0.00,,,-99.99,Meteorologica,2013-03-19 21:51:00,
2013-03-19 16:56:00,44.2,39.6,30.21,NW,306,5.3,10.0,83,0.00,,,-99.99,Meteorologica,2013-03-19 21:56:00,
2013-03-19 17:01:00,43.0,38.2,30.20,West,271,4.8,8.7,83,0.00,,,-99.99,Meteorologica,2013-03-19 22:01:00,
2013-03-19 17:06:00,42.6,38.0,30.20,West,269,4.1,6.1,83,0.00,,,-99.99,Meteorologica,2013-03-19 22:06:00,
2013-03-19 17:11:00,42.4,38.4,30.20,West,263,3.6,5.4,87,0.00,,,-99.99,Meteorologica,2013-03-19 22:11:00,
2013-03-19 17:16:00,42.2,38.6,30.21,West,279,4.7,6.1,87,0.00,,,-99.99,Meteorologica,2013-03-19 22:16:00,
2013-03-19 17:21:00,42.4,38.5,30.21,WNW,293,3.1,6.3,85,0.00,,,-99.99,Meteorologica,2013-03-19 22:21:00,
2013-03-19 17:26:00,42.3,38.5,30.21,SSW,196,3.5,6.1,86,0.00,,,-99.99,Meteorologica,2013-03-19 22:26:00,
2013-03-19 17:31:00,42.5,38.9,30.21,SW,227,1.0,5.6,87,0.00,,,-99.99,Meteorologica,2013-03-19 22:31:00,
2013-03-19 17:36:00,42.7,39.1,30.20,SSW,204,2.9,5.8,87,0.00,,,-99.99,Meteorologica,2013-03-19 22:36:00,
2013-03-19 17:41:00,42.7,39.0,30.20,WSW,237,4.1,5.7,86,0.00,,,-99.99,Meteorologica,2013-03-19 22:41:00,
2013-03-19 17:46:00,42.7,39.2,30.21,SW,230,0.0,0.0,87,0.00,,,-99.99,Meteorologica,2013-03-19 22:46:00,
2013-03-19 17:51:00,42.5,39.2,30.21,West,268,1.4,4.7,88,0.00,,,-99.99,Meteorologica,2013-03-19 22:51:00,
2013-03-19 17:56:00,42.5,39.2,30.21,WSW,251,0.0,5.8,88,0.00,,,-99.99,Meteorologica,2013-03-19 22:56:00,
2013-03-19 18:01:00,42.5,39.0,30.21,WNW,286,5.8,8.5,87,0.00,,,-99.99,Meteorologica,2013-03-19 23:01:00,
2013-03-19 18:07:00,43.1,39.5,30.20,West,277,4.5,9.2,87,0.00,,,-99.99,Meteorologica,2013-03-19 23:07:00,
2013-03-19 18:12:00,43.6,39.7,30.20,NW,311,3.1,5.6,86,0.00,,,-99.99,Meteorologica,2013-03-19 23:12:00,
2013-03-19 18:17:00,44.2,39.8,30.21,West,276,1.3,7.4,84,0.00,,,-99.99,Meteorologica,2013-03-19 23:17:00,
2013-03-19 18:22:00,44.4,39.4,30.21,West,279,2.4,7.3,82,0.00,,,-99.99,Meteorologica,2013-03-19 23:22:00,
2013-03-19 18:27:00,44.6,39.3,30.21,WSW,241,0.0,0.0,81,0.00,,,-99.99,Meteorologica,2013-03-19 23:27:00,
2013-03-19 18:33:00,44.6,39.3,30.21,WSW,241,0.0,0.0,81,0.00,,,-99.99,Meteorologica,2013-03-19 23:33:00,
2013-03-19 18:38:00,44.8,39.6,30.20,WSW,241,0.0,0.0,81,0.00,,,-99.99,Meteorologica,2013-03-19 23:38:00,
2013-03-19 18:43:00,44.9,39.1,30.21,West,267,7.4,10.8,79,0.00,,,-99.99,Meteorologica,2013-03-19 23:43:00,
2013-03-19 18:48:00,44.9,39.2,30.20,WNW,283,6.2,10.7,79,0.00,,,-99.99,Meteorologica,2013-03-19 23:48:00,
2013-03-19 18:53:00,44.8,39.4,30.20,SSW,200,0.3,8.8,81,0.00,,,-99.99,Meteorologica,2013-03-19 23:53:00,
2013-03-19 18:58:00,44.8,39.3,30.21,SSW,200,0.0,0.0,81,0.00,,,-99.99,Meteorologica,2013-03-19 23:58:00,
2013-03-19 19:03:00,44.6,39.3,30.21,SSW,200,0.0,0.0,81,0.00,,,-99.99,Meteorologica,2013-03-20 00:03:00,
2013-03-19 19:08:00,44.4,39.2,30.21,SSW,200,0.0,0.0,81,0.00,,,-99.99,Meteorologica,2013-03-20 00:08:00,
2013-03-19 19:14:00,43.9,38.9,30.22,West,271,3.4,4.9,82,0.00,,,-99.99,Meteorologica,2013-03-20 00:14:00,
2013-03-19 19:19:00,43.5,38.8,30.22,NW,307,0.2,0.0,83,0.00,,,-99.99,Meteorologica,2013-03-20 00:19:00,
2013-03-19 19:24:00,43.2,39.0,30.23,WNW,282,0.0,0.0,84,0.00,,,-99.99,Meteorologica,2013-03-20 00:24:00,
2013-03-19 19:29:00,43.1,39.2,30.24,WNW,282,0.1,0.0,86,0.00,,,-99.99,Meteorologica,2013-03-20 00:29:00,
2013-03-19 19:34:00,42.8,38.6,30.24,WNW,287,0.0,0.0,85,0.00,,,-99.99,Meteorologica,2013-03-20 00:34:00,
2013-03-19 19:39:00,42.7,38.6,30.24,WNW,287,0.0,0.0,85,0.00,,,-99.99,Meteorologica,2013-03-20 00:39:00,
2013-03-19 19:44:00,42.6,38.9,30.24,WNW,287,0.0,0.0,86,0.00,,,-99.99,Meteorologica,2013-03-20 00:44:00,
2013-03-19 19:49:00,42.4,39.1,30.23,SW,231,3.7,5.1,88,0.00,,,-99.99,Meteorologica,2013-03-20 00:49:00,
2013-03-19 19:54:00,42.4,39.2,30.23,West,263,3.4,5.4,88,0.00,,,-99.99,Meteorologica,2013-03-20 00:54:00,
2013-03-19 19:59:00,42.3,39.1,30.23,WSW,244,1.2,0.0,88,0.00,,,-99.99,Meteorologica,2013-03-20 00:59:00,
2013-03-19 20:04:00,42.3,39.1,30.23,WSW,245,1.8,3.5,88,0.00,,,-99.99,Meteorologica,2013-03-20 01:04:00,
2013-03-19 20:09:00,42.3,38.9,30.23,SW,217,0.0,0.0,87,0.00,,,-99.99,Meteorologica,2013-03-20 01:09:00,
2013-03-19 20:14:00,42.2,38.8,30.23,SW,217,0.0,0.0,87,0.00,,,-99.99,Meteorologica,2013-03-20 01:14:00,
2013-03-19 20:19:00,42.2,38.7,30.23,SW,217,0.0,0.0,87,0.00,,,-99.99,Meteorologica,2013-03-20 01:19:00,
2013-03-19 20:24:00,42.2,38.5,30.23,SW,217,0.0,0.0,86,0.00,,,-99.99,Meteorologica,2013-03-20 01:24:00,
2013-03-19 20:29:00,42.2,38.5,30.23,SW,217,0.0,0.0,86,0.00,,,-99.99,Meteorologica,2013-03-20 01:29:00,
2013-03-19 20:34:00,42.0,38.0,30.24,NW,306,0.0,0.0,85,0.00,,,-99.99,Meteorologica,2013-03-20 01:34:00,
2013-03-19 20:39:00,42.0,38.0,30.24,NW,306,0.0,0.0,85,0.00,,,-99.99,Meteorologica,2013-03-20 01:39:00,
2013-03-19 20:44:00,41.8,37.9,30.25,NW,306,0.0,0.0,86,0.00,,,-99.99,Meteorologica,2013-03-20 01:44:00,
2013-03-19 20:49:00,41.7,37.9,30.25,West,259,2.9,4.3,86,0.00,,,-99.99,Meteorologica,2013-03-20 01:49:00,
2013-03-19 20:54:00,41.8,38.1,30.24,NW,319,1.7,0.0,86,0.00,,,-99.99,Meteorologica,2013-03-20 01:54:00,
2013-03-19 20:59:00,41.7,38.0,30.25,WSW,248,0.0,0.0,86,0.00,,,-99.99,Meteorologica,2013-03-20 01:59:00,
2013-03-19 21:04:00,41.7,38.2,30.25,WSW,237,0.2,3.2,87,0.00,,,-99.99,Meteorologica,2013-03-20 02:04:00,
2013-03-19 21:09:00,41.6,38.3,30.25,SW,227,0.0,0.0,88,0.00,,,-99.99,Meteorologica,2013-03-20 02:09:00,
2013-03-19 21:14:00,41.4,38.2,30.25,WNW,287,1.0,4.3,88,0.00,,,-99.99,Meteorologica,2013-03-20 02:14:00,
2013-03-19 21:19:00,41.2,38.1,30.25,WNW,287,0.0,0.0,88,0.00,,,-99.99,Meteorologica,2013-03-20 02:19:00,
2013-03-19 21:24:00,41.0,38.0,30.25,WNW,287,0.0,0.0,89,0.00,,,-99.99,Meteorologica,2013-03-20 02:24:00,
2013-03-19 21:29:00,40.9,38.0,30.25,SE,132,2.0,4.5,89,0.00,,,-99.99,Meteorologica,2013-03-20 02:29:00,
2013-03-19 21:34:00,40.6,37.8,30.25,SE,135,0.0,0.0,90,0.00,,,-99.99,Meteorologica,2013-03-20 02:34:00,
2013-03-19 21:39:00,40.3,37.6,30.25,SE,135,0.0,0.0,90,0.00,,,-99.99,Meteorologica,2013-03-20 02:39:00,
2013-03-19 21:44:00,40.1,37.4,30.25,ESE,115,0.0,0.0,90,0.00,,,-99.99,Meteorologica,2013-03-20 02:44:00,
2013-03-19 21:49:00,39.8,37.3,30.25,ESE,115,0.0,0.0,90,0.00,,,-99.99,Meteorologica,2013-03-20 02:49:00,
2013-03-19 21:54:00,39.6,37.1,30.26,ESE,119,2.3,4.3,91,0.00,,,-99.99,Meteorologica,2013-03-20 02:54:00,
2013-03-19 21:59:00,39.5,37.1,30.26,SSE,149,3.5,3.5,91,0.00,,,-99.99,Meteorologica,2013-03-20 02:59:00,
2013-03-19 22:04:00,39.5,37.1,30.25,SE,143,0.0,0.0,91,0.00,,,-99.99,Meteorologica,2013-03-20 03:04:00,
2013-03-19 22:09:00,39.4,37.1,30.25,SE,143,0.0,0.0,91,0.00,,,-99.99,Meteorologica,2013-03-20 03:09:00,
2013-03-19 22:14:00,39.3,37.0,30.25,SE,143,0.0,0.0,91,0.00,,,-99.99,Meteorologica,2013-03-20 03:14:00,
2013-03-19 22:19:00,39.2,36.9,30.26,SE,143,0.0,0.0,91,0.00,,,-99.99,Meteorologica,2013-03-20 03:19:00,
2013-03-19 22:24:00,39.0,36.7,30.25,SE,143,0.0,0.0,91,0.00,,,-99.99,Meteorologica,2013-03-20 03:24:00,
2013-03-19 22:29:00,38.7,36.4,30.25,SE,143,0.0,0.0,91,0.00,,,-99.99,Meteorologica,2013-03-20 03:29:00,
2013-03-19 22:34:00,38.5,36.2,30.26,SE,143,0.0,0.0,91,0.00,,,-99.99,Meteorologica,2013-03-20 03:34:00,
2013-03-19 22:40:00,38.3,36.1,30.27,SE,143,0.0,0.0,91,0.00,,,-99.99,Meteorologica,2013-03-20 03:40:00,
2013-03-19 22:45:00,38.0,35.8,30.27,SE,143,0.0,0.0,91,0.00,,,-99.99,Meteorologica,2013-03-20 03:45:00,
2013-03-19 22:50:00,37.7,35.6,30.27,SE,143,0.0,0.0,92,0.00,,,-99.99,Meteorologica,2013-03-20 03:50:00,
2013-03-19 22:55:00,37.4,35.3,30.28,SE,143,0.0,0.0,92,0.00,,,-99.99,Meteorologica,2013-03-20 03:55:00,
2013-03-19 23:01:00,37.1,35.1,30.28,SE,143,0.0,0.0,92,0.00,,,-99.99,Meteorologica,2013-03-20 04:01:00,
2013-03-19 23:02:00,37.0,35.0,30.29,SE,143,0.0,0.0,92,0.00,,,-99.99,Meteorologica,2013-03-20 04:02:00,
2013-03-19 23:04:00,36.9,34.9,30.29,SE,143,0.0,0.0,92,0.00,,,-99.99,Meteorologica,2013-03-20 04:04:00,
2013-03-19 23:06:00,36.9,34.9,30.29,SE,143,0.0,0.0,92,0.00,,,-99.99,Meteorologica,2013-03-20 04:06:00,
2013-03-19 23:11:00,36.7,34.7,30.29,SE,143,0.0,0.0,92,0.00,,,-99.99,Meteorologica,2013-03-20 04:11:00,
2013-03-19 23:16:00,36.5,34.7,30.29,SE,143,0.0,0.0,93,0.00,,,-99.99,Meteorologica,2013-03-20 04:16:00,
2013-03-19 23:21:00,36.4,34.6,30.30,SE,143,0.0,0.0,93,0.00,,,-99.99,Meteorologica,2013-03-20 04:21:00,
2013-03-19 23:26:00,36.2,34.4,30.31,SE,143,0.0,0.0,93,0.00,,,-99.99,Meteorologica,2013-03-20 04:26:00,
2013-03-19 23:31:00,36.0,34.3,30.31,SE,143,0.0,0.0,93,0.00,,,-99.99,Meteorologica,2013-03-20 04:31:00,
2013-03-19 23:36:00,36.0,34.3,30.31,SE,143,0.0,0.0,93,0.00,,,-99.99,Meteorologica,2013-03-20 04:36:00,
2013-03-19 23:41:00,35.9,34.2,30.32,North,2,0.8,5.4,93,0.00,,,-99.99,Meteorologica,2013-03-20 04:41:00,
2013-03-19 23:46:00,36.0,34.1,30.32,North,2,0.0,0.0,93,0.00,,,-99.99,Meteorologica,2013-03-20 04:46:00,
2013-03-19 23:51:00,35.9,34.0,30.32,North,2,0.0,0.0,92,0.00,,,-99.99,Meteorologica,2013-03-20 04:51:00,
2013-03-19 23:56:00,35.8,33.7,30.32,North,0,1.3,4.8,92,0.00,,,-99.99,Meteorologica,2013-03-20 04:56:00,